Location: Cahas Mountain Overlook
(37.0833°N, 80.1000°W)
Time: 02:31:49
(UTC-05:00)

Courier 1B Rocket - All Passes

Search period start: 07 December 2023 00:00
Search period end: 17 December 2023 00:00
Orbit: 920 x 1201 km, 28.2° (Epoch: 06 December)

Date Brightness Start Highest point End Pass type
(mag) Time Alt. Az. Time Alt. Az. Time Alt. Az.
07 Dec - 10:40:31 10° SSW 10:45:53 24° SSE 10:50:59 10° ESE daylight
07 Dec - 12:32:39 10° WSW 12:38:43 37° S 12:44:30 10° ESE daylight
07 Dec - 14:25:50 10° WSW 14:31:35 34° S 14:37:09 10° SE daylight
07 Dec - 16:19:56 10° WSW 16:24:12 19° SSW 16:28:27 10° SSE daylight
08 Dec - 09:40:09 10° SSW 09:44:55 19° SSE 09:49:30 10° ESE daylight
08 Dec - 11:31:38 10° SW 11:37:45 34° S 11:43:32 10° ESE daylight
08 Dec - 13:24:37 10° WSW 13:30:39 38° S 13:36:25 10° ESE daylight
08 Dec - 15:18:21 10° WSW 15:23:23 25° SSW 15:28:19 10° SE daylight
09 Dec - 08:40:18 10° S 08:43:57 14° SSE 08:47:31 10° ESE daylight
09 Dec - 10:30:43 10° SW 10:36:46 30° SSE 10:42:28 10° ESE daylight
09 Dec - 12:23:25 10° WSW 12:29:42 39° S 12:35:37 10° ESE daylight
09 Dec - 14:16:56 10° WSW 14:22:32 30° SSW 14:27:54 10° SE daylight
09 Dec - 16:12:02 10° SW 16:15:03 14° SSW 16:18:02 10° S daylight
10 Dec - 09:29:58 10° SW 09:35:45 25° SSE 09:41:14 10° ESE daylight
10 Dec - 11:22:15 10° WSW 11:28:41 38° S 11:34:43 10° ESE daylight
10 Dec - 13:15:35 10° WSW 13:21:37 35° S 13:27:20 10° SE daylight
10 Dec - 15:09:52 10° WSW 15:14:15 19° SSW 15:18:32 10° SSE daylight
11 Dec - 08:29:30 10° SSW 08:34:44 21° SSE 08:39:45 10° ESE daylight
11 Dec - 10:21:09 10° SW 10:27:39 36° S 10:33:45 10° ESE daylight
11 Dec - 12:14:16 10° WSW 12:20:40 39° S 12:26:39 10° ESE daylight
11 Dec - 14:08:09 10° WSW 14:13:25 25° SSW 14:18:28 10° SE daylight
12 Dec - 07:29:31 10° S 07:33:43 16° SSE 07:37:48 10° ESE daylight
12 Dec - 09:20:10 10° SW 09:26:35 32° SSE 09:32:40 10° ESE daylight
12 Dec - 11:13:00 10° WSW 11:19:38 40° S 11:25:50 10° ESE daylight
12 Dec - 13:06:38 10° WSW 13:12:32 31° SSW 13:18:07 10° SE daylight
12 Dec - 15:01:53 10° WSW 15:05:04 14° SSW 15:08:11 10° S daylight
13 Dec - 06:30:54 10° SSE 06:32:42 11° SSE 06:34:30 10° SE visible
13 Dec - 08:19:22 10° SW 08:25:31 27° SSE 08:31:23 10° ESE daylight
13 Dec - 10:11:46 10° WSW 10:18:33 40° S 10:24:55 10° ESE daylight
13 Dec - 12:05:12 10° WSW 12:11:35 36° S 12:17:33 10° SE daylight
13 Dec - 13:59:36 10° WSW 14:04:15 20° SSW 14:08:44 10° SSE daylight
14 Dec - 07:18:52 10° SSW 07:24:27 22° SSE 07:29:52 10° ESE daylight
14 Dec - 09:10:37 10° SW 09:17:27 37° S 09:23:53 10° ESE daylight
14 Dec - 11:03:49 10° WSW 11:10:32 40° S 11:16:50 10° ESE daylight
14 Dec - 12:57:48 10° WSW 13:03:23 26° SSW 13:08:41 10° SE daylight
15 Dec - 06:18:50 10° S 06:23:23 17° SSE 06:27:52 10° ESE visible
15 Dec - 08:09:36 10° SW 08:16:19 33° SSE 08:22:44 10° ESE daylight
15 Dec - 10:02:29 10° WSW 10:09:27 42° S 10:15:59 10° ESE daylight
15 Dec - 11:56:12 10° WSW 12:02:27 32° SSW 12:08:19 10° SE daylight
15 Dec - 13:51:31 10° WSW 13:55:02 15° SSW 13:58:27 10° S daylight
16 Dec - 05:19:59 10° SSE 05:22:22 12° SSE 05:24:45 10° SE visible
16 Dec - 07:08:48 10° SW 07:15:11 28° SSE 07:21:23 10° ESE daylight
16 Dec - 09:01:13 10° WSW 09:08:18 41° S 09:15:00 10° ESE daylight
16 Dec - 10:54:42 10° WSW 11:01:25 38° S 11:07:43 10° SE daylight
16 Dec - 12:49:11 10° WSW 12:54:11 21° SSW 12:58:57 10° SSE daylight
